Regional Weather Roundup
Issued by NWS

Home | Current Version | Previous Version | Text Only | Print | Product List | Glossary On
Versions: 1 2 3 4 5 6 7 8 9 10 11 12 13 14 15 16 17 18 19 20 21 22 23 24 25 26 27 28
000
ASUS42 KTBW 231210
RWRFL
FLORIDA REGIONAL WEATHER ROUNDUP
NATIONAL WEATHER SERVICE TAMPA BAY RUSKIN FL
800 AM EDT WED APR 23 2014

NOTE: "FAIR" INDICATES FEW OR NO CLOUDS BELOW 12,000 FEET WITH NO
SIGNIFICANT WEATHER AND/OR OBSTRUCTIONS TO VISIBILITY.


FLZ001>010-012>015-112-114-115-231300-
PANHANDLE FLORIDA

CITY           SKY/WX    TMP DP  RH WIND       PRES   REMARKS
PENSACOLA      CLEAR     64  61  90 N5        29.95R FOG
PENSACOLA NAS  FOG       63  63 100 NW6       29.95R VSB 1
MILTON NAS     FOG       62  60  93 NW3       29.95R VSB 3/4
CRESTVIEW      FOG       62  61  96 N3        29.96R VSB 1
DUKE FIELD     FOG       59  59 100 CALM      29.95R VSB 1/4
VALPARAISO     CLEAR     62  62 100 CALM      29.95R FOG
MARY ESTHER    CLEAR     62  58  88 N5        29.94R FOG
PANAMA CITY    FOG       65  62  90 CALM      29.93R VSB 1/2
TYNDALL AFB    CLOUDY    68  65  93 W3        29.94R
APALACHICOLA   CLOUDY    68  64  87 CALM      29.94R FOG

STATION/POSITION SKY/WX   TEMP    WIND        PRES    WAVE   SWELL
                          AIR SEA DIR/SP/G            HT/PER HT/PER
                          (F)     (DEG/KT/KT) (MB)    (FT/S) (FT/S)
30.1N   87.6W              67 68  360/  8/ 10 1014.2R   1
29.2N   88.2W              68 68  340/  4/  6 1014.1R
28.8N   86.0W              68 69  270/  6/  8 1014.4R   1/ 4
PANAMA CITY BEAC           65 66   10/  1/  2 1013.6R
CAPE SAN BLAS    NOT AVBL
TOWER C                    67     300/  9/  9 1013.8R
28.5N   84.5W              69 69  290/  8/  8 1013.9R   1/ 3

$$
FLZ011-016>038-118-127-128-134-139-239-231300-
NORTH FLORIDA

CITY           SKY/WX    TMP DP  RH WIND       PRES   REMARKS
MARIANNA       SUNNY     61  61 100 CALM      29.93R FOG
TALLAHASSEE    FOG       63  59  88 W3        29.94R VSB 1/2
PERRY          CLOUDY    61  61 100 CALM      29.94R FOG
CROSS CITY       N/A     62  61  96 CALM      29.93R
GAINESVILLE    PTSUNNY   61  60  97 W7        29.93R FOG
MAYPORT NAS    MOSUNNY   65  61  87 W6        29.90R
JACKSONVILLE   MOSUNNY   62  62 100 W7        29.91R
JAX NAS        MOSUNNY   64  61  90 SW7       29.92R
JAX CRAIG      SUNNY     66  61  84 CALM      29.91R
JAX CECIL      CLOUDY    63  61  94 W5        29.92R FOG
FERNANDINA BEA FAIR      64  61  88 W6        29.89R
ST AUGUSTINE   SUNNY     63  61  93 W7        29.92R FOG

STATION/POSITION SKY/WX   TEMP    WIND        PRES    WAVE   SWELL
                          AIR SEA DIR/SP/G            HT/PER HT/PER
                          (F)     (DEG/KT/KT) (MB)    (FT/S) (FT/S)
SHELL POINT                63     280/  3/  5 1011.8R
KEATON BEACH               65     300/  6/  9 1013.6R
CEDAR KEY                  66     300/  5/  6 1013.4R
FERNANDINA                 63 66  260/  7/  8 1011.7R
30.7N   81.3W                 65                N/A     2/10
MAYPORT                    64 66  260/  6/  7   N/A
31.4N   80.9W              65 64  270/ 12/ 14 1011.6R   2/ 9   2/ 9
ST AUGUSTINE               63     270/  9/ 12 1013.4R

$$
FLZ040-043>046-052-053-057-058-063-144-231300-
INTERIOR CENTRAL FLORIDA

CITY           SKY/WX    TMP DP  RH WIND       PRES   REMARKS
OCALA          SUNNY     61  55  82 CALM      29.94R
THE VILLAGES     N/A     61  61 100 CALM      29.94R
LEESBURG       SUNNY     64  62  93 W5        29.94R
SANFORD        SUNNY     63  62  97 W5        29.93R
ORLANDO EXEC   SUNNY     66  62  87 W5        29.94R
ORLANDO INTL   MOSUNNY   66  62  87 W5        29.94R
KISSIMMEE      SUNNY     63  63 100 NW5       29.94R
WINTER HAVEN     N/A    N/A N/A N/A MISG      29.95R
LAKELAND       MOSUNNY   61  61 100 CALM      29.95R
BARTOW         SUNNY     64  64 100 W6        29.95R
OKEECHOBEE     SUNNY     59  59 100 CALM      29.95R FOG

$$
FLZ041-047-054-059-064-141-147-231300-
EAST CENTRAL FLORIDA

CITY           SKY/WX    TMP DP  RH WIND       PRES   REMARKS
ORMOND BEACH   PTSUNNY   61  61 100 W5        29.92R FOG
DAYTONA BEACH  MOSUNNY   62  61  96 SW6       29.92R
DELAND         SUNNY     63  61  94 W6        29.94R
NEW SMYRNA BEA SUNNY     63  63 100 W9        29.93R
JFK SPACE CTR  SUNNY     65  63  94 W5        29.93R
TITUSVILLE     SUNNY     63  61  94 W6        29.94R
CAPE CANAVERAL SUNNY     66  63  89 NW7       29.92R
PATRICK AFB    SUNNY     67  64  90 W9        29.93R
MELBOURNE      SUNNY     63  61  93 SW5       29.93R
VERO BEACH     SUNNY     64  63  96 NW7       29.94R
FT PIERCE      SUNNY     64  61  90 NW6       29.94R
STUART         MOSUNNY   64  63  94 MISG      29.94R

STATION/POSITION SKY/WX   TEMP    WIND        PRES    WAVE   SWELL
                          AIR SEA DIR/SP/G            HT/PER HT/PER
                          (F)     (DEG/KT/KT) (MB)    (FT/S) (FT/S)
28.5N   80.2W              67 79  310/ 14/ 16 1012.9R
28.9N   78.5W              74 76  290/ 14/ 16 1012.3R   4/ 9   3/ 9
TRIDENT PIER               66 74  280/  7/ 10 1012.8R
28.4N   80.5W                 71                N/A     2/10
27.6N   80.2W                 73                N/A     3/10   2/12

$$
FLZ050-056-061-142-242-148-248-149-249-151-251-155-255-
160-260-231300-
WEST CENTRAL FLORIDA

CITY           SKY/WX    TMP DP  RH WIND       PRES   REMARKS
CRYSTAL RIVER  CLOUDY    63  59  88 CALM      29.94R
INVERNESS      FAIR      59  55  88 CALM      29.95R
BROOKSVILLE    MOSUNNY   60  58  92 CALM      29.95R
CLEARWATER     MOSUNNY   67  62  84 W6        29.95R
TAMPA INTL     MOSUNNY   67  61  81 NW3       29.95R
TAMPA EXEC     SUNNY     63  59  88 CALM      29.96R
PLANT CITY     SUNNY     64 N/A N/A CALM      29.97R
MACDILL AFB    SUNNY     66  66  99 NW5       29.95R
PETER O KNIGHT SUNNY     68  63  83 CALM      29.95R
ST PETERSBURG  SUNNY     69  63  81 W3        29.93R
SARASOTA       MOSUNNY   68  62  81 NW5       29.94R
VENICE         FAIR      70  63  78 W12       29.96R

STATION/POSITION SKY/WX   TEMP    WIND        PRES    WAVE   SWELL
                          AIR SEA DIR/SP/G            HT/PER HT/PER
                          (F)     (DEG/KT/KT) (MB)    (FT/S) (FT/S)
CEDAR KEY                  66     300/  5/  6 1013.4R
28.5N   84.5W              69 69  290/  8/  8 1013.9R   1/ 3
27.3N   84.3W                 72                N/A     1
CLEARWATER BEACH           69 72  310/  8/ 10 1013.4R
MIDDLE TAMPA BAY           70     350/  6/  8 1014.2R
VENICE                     69 73  300/ 10/ 10 1013.1R

$$
FLZ066-069-070-075>078-162-262-165-265-231300-
SOUTHWEST FLORIDA AND KEYS

CITY           SKY/WX    TMP DP  RH WIND       PRES   REMARKS
PUNTA GORDA    MOSUNNY   68  64  87 NW5       29.97R
FT MYERS       MOSUNNY   65  63  93 CALM      29.95R
SOUTHWEST INTL SUNNY     62  59  90 CALM      29.96R
NAPLES         PTSUNNY   67  64  90 CALM      29.95R
MARATHON       MOSUNNY   74  64  71 W3        29.95R
KEY WEST NAS   MOSUNNY   73  63  70 CALM      29.95R
KEY WEST INTL  SUNNY     73  66  78 CALM      29.95R

STATION/POSITION SKY/WX   TEMP    WIND        PRES    WAVE   SWELL
                          AIR SEA DIR/SP/G            HT/PER HT/PER
                          (F)     (DEG/KT/KT) (MB)    (FT/S) (FT/S)
VENICE                     69 73  300/ 10/ 10 1013.1R
NAPLES                     71 76  330/ 10/ 12 1014.2R
26.0N   85.6W              76 80  350/  8/ 10 1014.1R   1/ 9
DRY TORTUGAS     NOT AVBL
NW FL BAY                  74     310/  6/  7 1013.5R
SOMBRERO KEY               73     310/  6/  7 1014.4R
LONG KEY                   73 78  330/  7/  9 1014.4R
MOLASSES REEF              70 78  350/  8/ 10 1013.6R

$$
FLZ067-068-071>074-168-172>174-231300-
SOUTHEAST FLORIDA

CITY           SKY/WX    TMP DP  RH WIND       PRES   REMARKS
W PALM BEACH   MOSUNNY   68  62  81 NW10      29.92R
FT LAUDER-EXEC MOSUNNY   67  63  87 W6        29.94R
FT LAUDERDALE  MOSUNNY   68  62  81 W6        29.94R
POMPANO BEACH  SUNNY     67  63  87 W6        29.94R
PEMBROKE PINES SUNNY     66  62  87 W6        29.96R
OPA LOCKA      SUNNY     67  61  81 NW7       29.95R
MIAMI          MOSUNNY   68  62  81 W6        29.95R
WEST KENDALL   SUNNY     64  63  96 W6        29.96R
HOMESTEAD      SUNNY     67  60  78 NW5       29.96R

STATION/POSITION SKY/WX   TEMP    WIND        PRES    WAVE   SWELL
                          AIR SEA DIR/SP/G            HT/PER HT/PER
                          (F)     (DEG/KT/KT) (MB)    (FT/S) (FT/S)
PORT EVERGLADES            66     270/  7/ 10 1013.6
VIRGINIA KEY               70 78  320/  2/  6 1013.9R
LAKE WORTH                 68 78  310/  5/  7 1012.9R
FOWEY ROCKS                70 78  290/  7/  8 1013.4R
SETTLEMENT POINT           77     300/  7/  9 1013.5R

$$




USA.gov is the U.S. government's official web portal to all federal, state and local government web resources and services.